Location: Diati
(11.8376°N, 2.5966°E)
Time: 17:24:12
(UTC+00:00)

IRS-1C Rocket - Pass Details

Date: 21 September 2020
Orbit: 801 x 805 km, 99.0° (Epoch: 19 October)

Event Time Altitude Azimuth Distance (km) Brightness Sun altitude
Rises 17:59:28 0° 157° (SSE) 3,302 7.0 -4.1°
Reaches altitude 10° 18:01:50 10° 152° (SSE) 2,372 6.3 -4.7°
Maximum altitude 18:06:56 53° 76° (ENE) 977 4.2 -5.9°
Drops below altitude 10° 18:12:00 10° 0° (N) 2,369 6.6 -7.2°
Sets 18:14:22 0° 356° (N) 3,299 7.4 -7.7°
